[[{"header":{"parameterUnit":"m.s-1","parameterCategory":2,"la1":30.2991,"la2":30.254,"lo1":-89.0895,"lo2":-89.0444,"dy":0.0017,"dx":0.0017,"nx":28,"ny":28,"refTime":"2025-04-15T21:00:00:Z","depth":"0","parameterNumber":2,"parameterNumberName":"U-component_of_CURRENTS"},"data":[0,0,0,0,0,0,0,0,0,0,0,0,0,0,0,0,0,0,0,0,0,0,0,0,0,0,0,0,0,0,0,0,0,0,0,0,0,0,0,0,0,0,0,0,0,0,0,0,0,0,0,0,0,0,0,0,0,0,0.174,0.174,0,0.174,0.174,0.1739,0.1718,0.1718,0.1718,0.1717,0.1692,0.1692,0.1691,0,0,0,0,0,0,0,0,0,0,0,0,0,0.1747,0.1747,0.174,0.174,0.174,0.174,0.174,0.1739,0.1718,0.1718,0.1717,0.1717,0.1692,0.1692,0.1691,0,0,0,0,0,0,0,0,0,0,0,0,0,0.1743,0.1747,0.174,0.1731,0.1731,0.174,0.174,0.1739,0.1718,0.1718,0.1717,0.1717,0.1692,0.1692,0.1691,0.1697,0,0,0.1689,0.1689,0,0,0,0,0,0,0,0,0.1743,0.1742,0.1732,0.1732,0.1732,0.1731,0.1733,0.1725,0.1718,0.172,0.1717,0.1717,0.1705,0.1703,0.1701,0.1696,0.1695,0.1689,0.1689,0.1689,0.1689,0,0,0,0,0,0,0,0.1743,0.1742,0.1737,0.1733,0.1732,0.1737,0.1735,0.1732,0.1713,0.172,0.1719,0.1724,0.1704,0.1701,0.17,0.1695,0.1689,0.1689,0.1689,0.1688,0.1696,0.1697,0,0,0,0,0,0,0.1748,0.1742,0.1737,0.1737,0.1739,0.1737,0.1735,0.1729,0.1713,0.1711,0.1724,0.1723,0.1703,0.1701,0.1699,0.1711,0.1689,0.1688,0.1688,0.1696,0.1696,0.1697,0,0,0,0,0,0,0.1748,0.1747,0.1737,0.1743,0.1742,0.1738,0.1731,0.173,0.1727,0.1717,0.1714,0.1724,0.1702,0.17,0.1695,0.171,0.1688,0.1688,0.1695,0.1696,0.1697,0.1732,0,0,0,0,0,0,0.1748,0.1746,0.1745,0.1743,0.1742,0.1749,0.1732,0.173,0.1732,0.173,0.1716,0.1713,0.1702,0.1696,0.1695,0.1709,0.1687,0.1694,0.1695,0.1696,0.173,0.1734,0.1737,0,0,0,0,0,0.1748,0.175,0.1745,0.1745,0.1739,0.1749,0.175,0.1743,0.1733,0.1738,0.1723,0.1713,0.1702,0.1696,0.1694,0.1708,0.1694,0.1695,0.1696,0.1728,0.1733,0.1737,0,0,0,0,0,0,0.1752,0.1748,0.1743,0.1742,0.1749,0.1747,0.1752,0.1747,0.1739,0.1734,0.1717,0.1714,0.1721,0.1707,0.1701,0.1714,0.1698,0.1699,0.1723,0.1727,0.173,0.174,0.1687,0,0,0,0,0,0.1753,0.175,0.1753,0.1752,0.1757,0.1754,0.1757,0.1755,0.1749,0.1745,0.1735,0.1725,0.1725,0.1719,0.1719,0.1719,0.1755,0.1728,0.1732,0.1735,0.1742,0.1845,0.186,0.1701,0.1701,0.1701,0,0,0.1757,0.1752,0.1752,0.1753,0.1755,0.176,0.1754,0.1762,0.1764,0.1744,0.1741,0.1741,0.173,0.1736,0.1738,0.1724,0.1793,0.1737,0.1739,0.1745,0.1848,0.1864,0.1878,0.1702,0.1702,0.1702,0,0,0.1757,0.1757,0.1753,0.176,0.1767,0.1769,0.1773,0.1775,0.1775,0.1776,0.1768,0.1777,0.1763,0.1767,0.1765,0.1787,0.1815,0.1784,0.1802,0.1902,0.1917,0.193,0.1973,0.1991,0.1777,0.1778,0.1778,0,0.1761,0.1751,0.1757,0.1757,0.1763,0.1772,0.1775,0.1782,0.1781,0.1791,0.1778,0.1794,0.1781,0.1804,0.1804,0.1797,0.1845,0.1786,0.191,0.1924,0.1938,0.1979,0.1998,0.1779,0.1779,0.1779,0.1779,0,0.1755,0.1752,0.1755,0.1752,0.1764,0.1772,0.1786,0.1799,0.18,0.1808,0.1837,0.1835,0.1848,0.1844,0.1823,0.1901,0.19,0.1913,0.1905,0.1956,0.1995,0.2014,0.1782,0.1781,0.1781,0.178,0,0,0.1742,0.1748,0.1747,0.1752,0.1763,0.1776,0.179,0.1813,0.1843,0.1847,0.1891,0.1882,0.19,0.1899,0.1895,0.196,0.2074,0.1971,0.1976,0.2022,0.2275,0.2094,0.2097,0.2129,0.2133,0.2136,0.2257,0,0.1731,0.1728,0.1736,0.1747,0.1752,0.1776,0.1799,0.1826,0.1853,0.1904,0.1921,0.1959,0.1917,0.1941,0.2,0.2078,0.213,0.2038,0.221,0.2214,0.2056,0.2115,0.1955,0.2034,0.2275,0.2278,0.228,0,0.1716,0.1716,0.1718,0.1753,0.1762,0.1776,0.1833,0.1858,0.1928,0.1956,0.2,0.2028,0.21,0.2074,0.2223,0.2177,0.222,0.2266,0.2273,0.2107,0.2069,0.2026,0.206,0.1955,0.2309,0.2307,0.2305,0,0.1696,0.1709,0.171,0.1717,0.1756,0.1776,0.1808,0.1871,0.1922,0.2005,0.2062,0.2139,0.2206,0.2296,0.2334,0.2322,0.2502,0.2504,0.237,0.2357,0.2251,0.2219,0.2209,0.2614,0.2614,0.2614,0.2613,0,0.1678,0.1682,0.1705,0.1708,0.1751,0.1775,0.1846,0.1888,0.1979,0.206,0.2095,0.2174,0.2278,0.2364,0.2398,0.242,0.2555,0.2381,0.2388,0.2249,0.2218,0.2142,0.2123,0.2618,0.2617,0.2616,0.2616,0,0.1654,0.1661,0.1682,0.172,0.1741,0.1777,0.1877,0.1948,0.2008,0.2125,0.2159,0.226,0.2356,0.2401,0.2549,0.2485,0.2436,0.2497,0.2277,0.2252,0.1984,0.1973,0.1942,0.1902,0.2396,0.2393,0.239,0,0.1637,0.1637,0.1692,0.174,0.1762,0.1824,0.1895,0.1962,0.204,0.2168,0.2235,0.233,0.2379,0.2457,0.2382,0.2376,0.2334,0.2191,0.2114,0.194,0.1939,0.1896,0.1865,0.2,0.1994,0.199,0.1986,0,0.1619,0.1642,0.1676,0.1777,0.185,0.192,0.2007,0.2061,0.2154,0.222,0.2302,0.2338,0.2336,0.2232,0.2151,0.2122,0.2031,0.2084,0.2016,0.17,0.1555,0.1526,0.1918,0.1942,0.1946,0.195,0.1952,0.1954,0.1628,0.1667,0.1741,0.184,0.1928,0.2009,0.204,0.2115,0.2189,0.2226,0.2301,0.2246,0.2084,0.1933,0.1884,0.1598,0.1723,0.1504,0.1531,0.1524,0.1387,0.1617,0.1564,0.1566,0.1568,0.1569,0.1571,0,0.1657,0.1719,0.1814,0.1925,0.2019,0.2048,0.2123,0.2112,0.2139,0.213,0.2134,0.1876,0.1693,0.1521,0.1205,0.1069,0.1061,0.1018,0.0972,0.0995,0.1297,0.1172,0.0896,0.0896,0.0896,0.0896,0.0896,0.0896,0.1686,0.1779,0.1835,0.1988,0.2057,0.2095,0.2107,0.2055,0.2004,0.1818,0.162,0.1529,0.1295,0.0973,0.0709,0.0674,0.0654,0.0559,0.0655,0.0876,0.0925,0.0972,0.0849,0.0509,0.0509,0.0285,0.0283,0.0281]},{"header":{"parameterUnit":"m.s-1","parameterCategory":2,"la1":30.2991,"la2":30.254,"lo1":-89.0895,"lo2":-89.0444,"dy":0.0017,"dx":0.0017,"nx":28,"ny":28,"refTime":"2025-04-15T21:00:00:Z","depth":"0","parameterNumber":3,"parameterNumberName":"V-component_of_CURRENTS"},"data":[0,0,0,0,0,0,0,0,0,0,0,0,0,0,0,0,0,0,0,0,0,0,0,0,0,0,0,0,0,0,0,0,0,0,0,0,0,0,0,0,0,0,0,0,0,0,0,0,0,0,0,0,0,0,0,0,0,0,0.0142,0.0142,0,0.0163,0.0163,0.0164,0.0164,0.0164,0.0163,0.0163,0.0182,0.0183,0.0184,0,0,0,0,0,0,0,0,0,0,0,0,0,0.0116,0.0117,0.0142,0.0142,0.0142,0.0163,0.0163,0.0164,0.0164,0.0164,0.0163,0.0163,0.0182,0.0183,0.0184,0,0,0,0,0,0,0,0,0,0,0,0,0,0.0132,0.0117,0.0142,0.0145,0.0145,0.0163,0.0163,0.0164,0.0164,0.0164,0.0163,0.0163,0.0182,0.0183,0.0184,0.0201,0,0,0.0188,0.0188,0,0,0,0,0,0,0,0,0.0131,0.0133,0.0144,0.0144,0.0145,0.016,0.0161,0.0176,0.0164,0.0157,0.0163,0.0162,0.0175,0.0177,0.0182,0.0202,0.0202,0.0188,0.0189,0.0189,0.019,0,0,0,0,0,0,0,0.013,0.0132,0.0151,0.0144,0.0145,0.015,0.0151,0.0164,0.0169,0.0158,0.0158,0.016,0.0175,0.0181,0.0183,0.0203,0.0188,0.0189,0.019,0.019,0.024,0.024,0,0,0,0,0,0,0.0126,0.0131,0.015,0.0151,0.0136,0.0151,0.0152,0.0156,0.0168,0.017,0.016,0.016,0.0179,0.0181,0.0183,0.0211,0.0189,0.019,0.0191,0.0239,0.024,0.0241,0,0,0,0,0,0,0.0126,0.0128,0.0149,0.0141,0.0144,0.0151,0.0155,0.0157,0.0161,0.017,0.0171,0.0163,0.0179,0.0182,0.0198,0.0211,0.0191,0.0192,0.0239,0.0239,0.024,0.0261,0,0,0,0,0,0,0.0125,0.0128,0.013,0.0141,0.0144,0.0162,0.0156,0.0157,0.0163,0.0163,0.0174,0.0175,0.0179,0.0196,0.0199,0.0212,0.0193,0.0238,0.0239,0.024,0.0259,0.0262,0.0265,0,0,0,0,0,0.0124,0.0132,0.013,0.0133,0.0148,0.0162,0.0165,0.0168,0.0164,0.017,0.0177,0.0174,0.0205,0.0198,0.0201,0.0215,0.0237,0.0239,0.024,0.0258,0.0262,0.0265,0,0,0,0,0,0,0.0123,0.0133,0.0131,0.0142,0.0151,0.0162,0.0169,0.017,0.0181,0.018,0.0184,0.0187,0.0206,0.0208,0.0199,0.0232,0.022,0.0222,0.0233,0.0236,0.0239,0.0243,0.0194,0,0,0,0,0,0.0123,0.0131,0.014,0.0149,0.0153,0.0161,0.0167,0.0169,0.0179,0.0183,0.0191,0.0201,0.0215,0.0223,0.0234,0.0254,0.0276,0.0264,0.0267,0.0269,0.0275,0.0337,0.0347,0.0245,0.0245,0.0245,0,0,0.0125,0.0131,0.0136,0.0149,0.0156,0.0173,0.0164,0.0175,0.0188,0.0185,0.0205,0.0211,0.0222,0.0244,0.0252,0.0247,0.0306,0.0271,0.0273,0.0277,0.034,0.035,0.0359,0.0246,0.0246,0.0246,0,0,0.0137,0.0139,0.0152,0.0162,0.0174,0.018,0.0183,0.0195,0.0199,0.0219,0.022,0.0235,0.0255,0.0268,0.0276,0.0302,0.0318,0.0302,0.0321,0.0381,0.0391,0.0399,0.0426,0.0437,0.0304,0.0304,0.0304,0,0.0139,0.0157,0.0158,0.0176,0.0186,0.0185,0.0204,0.0212,0.0227,0.0233,0.0228,0.0266,0.0269,0.0303,0.0308,0.0309,0.0337,0.0307,0.0386,0.0395,0.0404,0.043,0.0441,0.0305,0.0305,0.0305,0.0304,0,0.0164,0.018,0.0189,0.0211,0.0221,0.0237,0.0247,0.0254,0.0256,0.0265,0.0292,0.0305,0.0326,0.0329,0.0325,0.038,0.0378,0.0383,0.038,0.0415,0.044,0.0452,0.0306,0.0306,0.0306,0.0305,0,0,0.017,0.0201,0.0205,0.0218,0.0241,0.0251,0.027,0.0288,0.0299,0.0317,0.0348,0.0364,0.0366,0.0375,0.0378,0.0423,0.0494,0.0427,0.043,0.0456,0.0614,0.0564,0.0572,0.0523,0.0525,0.0527,0.0603,0,0.0192,0.0227,0.0238,0.027,0.0289,0.0293,0.0308,0.032,0.0332,0.0362,0.038,0.041,0.0386,0.0401,0.0443,0.0502,0.0528,0.0471,0.0574,0.0576,0.0531,0.0586,0.0579,0.0643,0.0615,0.0616,0.0618,0,0.0218,0.0237,0.0272,0.0295,0.0301,0.0318,0.0336,0.035,0.0382,0.0393,0.0425,0.0446,0.0512,0.0486,0.0594,0.0566,0.058,0.0612,0.0616,0.0572,0.0549,0.0606,0.0666,0.064,0.0636,0.0635,0.0633,0,0.0225,0.0261,0.0286,0.0298,0.0323,0.0331,0.0339,0.0359,0.0374,0.0422,0.0461,0.0518,0.0585,0.0628,0.0676,0.0653,0.0797,0.0774,0.0729,0.0725,0.074,0.0732,0.0791,0.0827,0.0827,0.0826,0.0826,0,0.0248,0.0268,0.0289,0.0306,0.0322,0.0335,0.0355,0.0364,0.0404,0.0458,0.048,0.0563,0.0633,0.0715,0.072,0.0775,0.0832,0.0746,0.0754,0.0742,0.0734,0.0727,0.071,0.0829,0.0829,0.0828,0.0828,0,0.0258,0.0275,0.0303,0.0327,0.0329,0.0339,0.0361,0.0383,0.0416,0.0501,0.0529,0.064,0.0763,0.0793,0.0895,0.0849,0.0875,0.0868,0.0827,0.0828,0.0735,0.0719,0.0784,0.0795,0.0844,0.0843,0.0843,0,0.0268,0.0285,0.031,0.0323,0.0336,0.0349,0.0362,0.0382,0.0424,0.0565,0.0628,0.0762,0.0881,0.098,0.0943,0.0935,0.0897,0.0866,0.0803,0.0741,0.0732,0.0715,0.0719,0.0832,0.0831,0.0831,0.083,0,0.0284,0.0292,0.0312,0.0339,0.0358,0.0379,0.0413,0.0452,0.052,0.062,0.0799,0.0911,0.1001,0.1035,0.0974,0.0944,0.085,0.0851,0.0833,0.0762,0.0711,0.0721,0.0742,0.0826,0.0827,0.0827,0.0827,0.0827,0.0289,0.0304,0.0331,0.0354,0.0382,0.0432,0.0473,0.0554,0.0657,0.085,0.093,0.1117,0.1079,0.1028,0.0975,0.0819,0.0837,0.0757,0.0754,0.0751,0.073,0.0709,0.0766,0.0766,0.0766,0.0766,0.0766,0,0.0295,0.0315,0.0345,0.0387,0.0431,0.0439,0.0526,0.0606,0.0775,0.0954,0.1123,0.1175,0.1134,0.103,0.0815,0.0732,0.072,0.0694,0.0694,0.0713,0.0745,0.0709,0.0702,0.0702,0.0702,0.0702,0.0702,0.0702,0.0302,0.0326,0.0343,0.0417,0.0458,0.0542,0.0604,0.0759,0.0898,0.1112,0.1206,0.1266,0.1142,0.0858,0.0695,0.0669,0.0663,0.0633,0.0646,0.0668,0.0674,0.068,0.0643,0.0622,0.0622,0.0625,0.0625,0.0625]}],[{"header":{"parameterUnit":"m.s-1","parameterCategory":2,"la1":30.2991,"la2":30.254,"lo1":-89.0895,"lo2":-89.0444,"dy":0.0017,"dx":0.0017,"nx":28,"ny":28,"refTime":"2025-04-15T21:00:00:Z","depth":"2","parameterNumber":2,"parameterNumberName":"U-component_of_CURRENTS"},"data":[0,0,0,0,0,0,0,0,0,0,0,0,0,0,0,0,0,0,0,0,0,0,0,0,0,0,0,0,0,0,0,0,0,0,0,0,0,0,0,0,0,0,0,0,0,0,0,0,0,0,0,0,0,0,0,0,0,0,0.125,0.125,0,0.1235,0.1235,0.1235,0.124,0.1241,0.1241,0.1242,0.1251,0.1251,0.1251,0,0,0,0,0,0,0,0,0,0,0,0,0,0.1263,0.1263,0.125,0.125,0.125,0.1236,0.1235,0.1235,0.124,0.1241,0.1241,0.1242,0.1252,0.1251,0.1251,0,0,0,0,0,0,0,0,0,0,0,0,0,0.1252,0.1263,0.125,0.1253,0.1253,0.1236,0.1235,0.1234,0.124,0.1241,0.1242,0.1242,0.1252,0.1251,0.1251,0.1231,0,0,0.1249,0.1249,0,0,0,0,0,0,0,0,0.1252,0.1251,0.1252,0.1253,0.1253,0.1243,0.1244,0.1235,0.124,0.1242,0.1242,0.1243,0.1252,0.1251,0.1243,0.1231,0.1232,0.1249,0.1249,0.1249,0.1249,0,0,0,0,0,0,0,0.1253,0.1251,0.1241,0.1252,0.1253,0.1249,0.1248,0.1242,0.1241,0.1242,0.1243,0.1245,0.1252,0.1243,0.1243,0.1232,0.1249,0.1249,0.1249,0.1249,0.1276,0.1276,0,0,0,0,0,0,0.126,0.1252,0.1242,0.1241,0.1258,0.1248,0.1247,0.1243,0.124,0.1241,0.1245,0.1246,0.1243,0.1244,0.1243,0.1271,0.1249,0.1249,0.1248,0.1275,0.1276,0.1277,0,0,0,0,0,0,0.126,0.1259,0.1242,0.1249,0.1247,0.1248,0.1243,0.1242,0.1249,0.1243,0.1244,0.1254,0.1244,0.1244,0.1261,0.1269,0.1248,0.1248,0.1273,0.1275,0.1276,0.1293,0,0,0,0,0,0,0.1261,0.1259,0.1263,0.1249,0.1247,0.1246,0.1242,0.1242,0.125,0.1251,0.1251,0.1251,0.1245,0.1262,0.1261,0.1268,0.1248,0.1272,0.1274,0.1276,0.1291,0.1295,0.1298,0,0,0,0,0,0.1261,0.1255,0.1263,0.1262,0.125,0.1247,0.1245,0.1246,0.125,0.1255,0.1262,0.1252,0.1273,0.1262,0.126,0.1268,0.1271,0.1274,0.1276,0.1289,0.1294,0.1298,0,0,0,0,0,0,0.1258,0.1255,0.1263,0.1256,0.1262,0.1249,0.125,0.1254,0.126,0.1268,0.126,0.1262,0.1282,0.1276,0.1264,0.1284,0.1272,0.1274,0.1283,0.1287,0.129,0.1306,0.1247,0,0,0,0,0,0.1261,0.1262,0.1261,0.1261,0.1261,0.126,0.1261,0.1266,0.1268,0.1272,0.1272,0.1278,0.1285,0.1288,0.1293,0.1297,0.1333,0.1305,0.1308,0.1311,0.1324,0.1363,0.1371,0.1284,0.1284,0.1284,0,0,0.1262,0.1261,0.1262,0.1262,0.1262,0.1266,0.1262,0.1269,0.128,0.1272,0.1286,0.1291,0.1292,0.1304,0.1312,0.1301,0.1365,0.1314,0.1316,0.1328,0.1366,0.1374,0.1382,0.1286,0.1285,0.1285,0,0,0.1262,0.1261,0.1265,0.1272,0.1283,0.1279,0.1287,0.1286,0.1294,0.1311,0.1311,0.1332,0.133,0.1338,0.134,0.1367,0.1385,0.136,0.1382,0.1418,0.1426,0.1433,0.1535,0.1551,0.1356,0.1356,0.1356,0,0.1271,0.1265,0.1267,0.1275,0.128,0.1287,0.1294,0.1301,0.1311,0.1317,0.1325,0.1346,0.1351,0.1368,0.1381,0.1375,0.1416,0.1362,0.1423,0.143,0.1437,0.1539,0.1556,0.1357,0.1357,0.1357,0.1357,0,0.1272,0.1276,0.1276,0.1289,0.1297,0.1302,0.1315,0.1333,0.1343,0.1344,0.1373,0.1388,0.14,0.1404,0.1401,0.1442,0.1467,0.1426,0.1411,0.1446,0.1553,0.1571,0.1359,0.1358,0.1358,0.1358,0,0,0.1268,0.1276,0.1277,0.1285,0.1303,0.1305,0.1334,0.1345,0.1361,0.1383,0.1402,0.143,0.1436,0.1442,0.1442,0.1477,0.1578,0.1472,0.1473,0.1573,0.1712,0.1504,0.1504,0.1534,0.1536,0.1538,0.1784,0,0.127,0.128,0.1284,0.1295,0.1298,0.1321,0.133,0.1351,0.1379,0.14,0.1427,0.1447,0.1447,0.1463,0.1496,0.1552,0.1617,0.152,0.1663,0.167,0.1477,0.1512,0.1362,0.1545,0.1801,0.1804,0.1806,0,0.1262,0.1271,0.1281,0.1286,0.1287,0.1297,0.1328,0.1337,0.1374,0.1405,0.1444,0.1461,0.1533,0.1515,0.1659,0.1593,0.1665,0.1713,0.1722,0.1529,0.1489,0.1542,0.1567,0.1836,0.1833,0.1831,0.1829,0,0.1241,0.126,0.1264,0.1272,0.1286,0.1299,0.1299,0.1333,0.1353,0.1415,0.1459,0.1517,0.1576,0.1654,0.1729,0.1718,0.1873,0.1872,0.1774,0.1766,0.1665,0.1638,0.1984,0.1984,0.1983,0.1983,0.1982,0,0.1221,0.123,0.1257,0.1258,0.1257,0.1274,0.128,0.1309,0.1359,0.1405,0.1448,0.1521,0.1608,0.1684,0.1758,0.1796,0.1905,0.1796,0.1794,0.1667,0.1639,0.1893,0.1879,0.1992,0.199,0.1988,0.1987,0,0.119,0.1213,0.124,0.126,0.1243,0.1257,0.1263,0.1291,0.134,0.1424,0.1454,0.156,0.1652,0.1704,0.1848,0.1826,0.1887,0.1872,0.173,0.1699,0.1786,0.1771,0.1859,0.1854,0.1849,0.1845,0.1841,0,0.1172,0.1173,0.1217,0.1248,0.1258,0.1258,0.125,0.1277,0.1329,0.146,0.1512,0.1602,0.1649,0.172,0.1682,0.173,0.1806,0.1609,0.1523,0.1774,0.1765,0.1757,0.1749,0.1475,0.1469,0.1464,0.146,0,0.1143,0.1178,0.12,0.1237,0.1267,0.1269,0.1276,0.13,0.1373,0.1433,0.1533,0.157,0.1598,0.151,0.1464,0.1478,0.1567,0.1501,0.1828,0.1448,0.1406,0.1398,0.1405,0.1415,0.142,0.1423,0.1425,0.1427,0.1139,0.1165,0.1201,0.1238,0.1274,0.1286,0.1261,0.1295,0.1315,0.1375,0.1467,0.1445,0.1436,0.125,0.1203,0.1141,0.1282,0.1253,0.1274,0.1298,0.1127,0.1068,0.0992,0.0994,0.0995,0.0997,0.0998,0,0.1122,0.1154,0.1185,0.1236,0.125,0.1281,0.1277,0.1245,0.124,0.1269,0.1282,0.1116,0.1018,0.1007,0.0843,0.0805,0.0853,0.0768,0.0853,0.0896,0.0935,0.0749,0.0513,0.0511,0.051,0.0509,0,0,0.1133,0.1142,0.1144,0.1176,0.1217,0.1191,0.1185,0.1129,0.1098,0.1019,0.0951,0.0988,0.0987,0.0756,0.0696,0.0589,0.0749,0.0548,0.0937,0.1082,0.112,0.1204,0.0961,0,0,0,0,0]},{"header":{"parameterUnit":"m.s-1","parameterCategory":2,"la1":30.2991,"la2":30.254,"lo1":-89.0895,"lo2":-89.0444,"dy":0.0017,"dx":0.0017,"nx":28,"ny":28,"refTime":"2025-04-15T21:00:00:Z","depth":"2","parameterNumber":3,"parameterNumberName":"V-component_of_CURRENTS"},"data":[0,0,0,0,0,0,0,0,0,0,0,0,0,0,0,0,0,0,0,0,0,0,0,0,0,0,0,0,0,0,0,0,0,0,0,0,0,0,0,0,0,0,0,0,0,0,0,0,0,0,0,0,0,0,0,0,0,0,0.0036,0.0036,0,0.0055,0.0055,0.0055,0.0063,0.0063,0.0063,0.0063,0.0077,0.0078,0.0078,0,0,0,0,0,0,0,0,0,0,0,0,0,0.0008,0.0008,0.0036,0.0036,0.0036,0.0055,0.0055,0.0055,0.0063,0.0063,0.0063,0.0063,0.0077,0.0078,0.0078,0,0,0,0,0,0,0,0,0,0,0,0,0,0.0023,0.0009,0.0036,0.0042,0.0043,0.0055,0.0055,0.0056,0.0063,0.0063,0.0063,0.0063,0.0077,0.0078,0.0078,0.0086,0,0,0.0081,0.0081,0,0,0,0,0,0,0,0,0.0023,0.0025,0.0041,0.0041,0.0042,0.0056,0.0051,0.0065,0.0063,0.0056,0.0063,0.0063,0.0069,0.0071,0.0076,0.0087,0.0087,0.0081,0.0081,0.0081,0.0082,0,0,0,0,0,0,0,0.0021,0.0024,0.0044,0.0041,0.0042,0.0044,0.0046,0.0053,0.0064,0.0057,0.0057,0.0058,0.007,0.0075,0.0076,0.0087,0.0081,0.0081,0.0082,0.0082,0.0106,0.0107,0,0,0,0,0,0,0.0018,0.0023,0.0043,0.0045,0.0031,0.0045,0.0047,0.0052,0.0064,0.0065,0.0058,0.0058,0.0074,0.0075,0.0077,0.0092,0.0081,0.0082,0.0082,0.0106,0.0106,0.0107,0,0,0,0,0,0,0.0017,0.002,0.0043,0.0033,0.0036,0.0045,0.0051,0.0053,0.0057,0.0065,0.0066,0.0061,0.0074,0.0076,0.0086,0.0092,0.0082,0.0083,0.0106,0.0106,0.0107,0.012,0,0,0,0,0,0,0.0017,0.002,0.0022,0.0033,0.0037,0.0052,0.0051,0.0053,0.0058,0.0058,0.0068,0.0069,0.0074,0.0085,0.0087,0.0093,0.0084,0.0106,0.0106,0.0106,0.0119,0.012,0.0121,0,0,0,0,0,0.0016,0.0022,0.0022,0.0025,0.004,0.0052,0.0054,0.006,0.0058,0.0063,0.007,0.0069,0.0089,0.0086,0.0088,0.0095,0.0105,0.0106,0.0106,0.0118,0.012,0.0121,0,0,0,0,0,0,0.0012,0.0024,0.0024,0.0034,0.0042,0.0053,0.0058,0.006,0.0069,0.0069,0.0074,0.0076,0.0087,0.0089,0.0085,0.0102,0.0096,0.0097,0.0104,0.0106,0.0107,0.0111,0.0084,0,0,0,0,0,0.0012,0.002,0.0029,0.0037,0.0041,0.0048,0.0053,0.0057,0.0066,0.0069,0.0076,0.0083,0.0091,0.0096,0.0104,0.0114,0.0128,0.0119,0.012,0.0121,0.0125,0.0144,0.0147,0.0108,0.0108,0.0108,0,0,0.0011,0.0019,0.0023,0.0036,0.0043,0.0055,0.0051,0.006,0.007,0.0069,0.0085,0.0088,0.0095,0.0108,0.0113,0.011,0.0142,0.0122,0.0123,0.0126,0.0144,0.0148,0.0152,0.0109,0.0109,0.0109,0,0,0.0019,0.0023,0.0034,0.0042,0.0052,0.0058,0.006,0.0071,0.0076,0.0089,0.0091,0.0098,0.0112,0.0119,0.0124,0.0137,0.0148,0.0136,0.0148,0.0166,0.0169,0.0172,0.021,0.0216,0.0137,0.0137,0.0137,0,0.0017,0.0035,0.0038,0.0053,0.0062,0.006,0.0075,0.0081,0.0094,0.0098,0.0096,0.0116,0.0119,0.0136,0.0141,0.014,0.0159,0.0142,0.0168,0.0171,0.0174,0.0212,0.0219,0.0138,0.0138,0.0138,0.0138,0,0.0037,0.005,0.0058,0.0077,0.0085,0.0097,0.0105,0.0111,0.0112,0.0117,0.0131,0.0137,0.0149,0.0149,0.015,0.0171,0.0182,0.0168,0.0165,0.0179,0.0218,0.0225,0.0139,0.0139,0.0139,0.0138,0,0,0.0036,0.0065,0.0068,0.0081,0.0099,0.0108,0.0122,0.0135,0.0141,0.0149,0.0169,0.0174,0.0172,0.0177,0.0178,0.0191,0.0231,0.019,0.019,0.023,0.029,0.0247,0.0251,0.0222,0.0223,0.0223,0.0314,0,0.0051,0.0081,0.0093,0.0119,0.0135,0.014,0.0152,0.016,0.0165,0.0183,0.0187,0.0203,0.0185,0.0194,0.0204,0.0233,0.0247,0.0209,0.0268,0.027,0.0232,0.0256,0.0244,0.0319,0.0321,0.0322,0.0323,0,0.0069,0.0088,0.0116,0.014,0.0147,0.016,0.0175,0.0187,0.0204,0.0206,0.0219,0.0228,0.0261,0.0235,0.0288,0.0267,0.0276,0.029,0.0293,0.0252,0.0239,0.0302,0.0332,0.0335,0.0334,0.0333,0.0332,0,0.007,0.0104,0.0126,0.0136,0.0162,0.0171,0.0182,0.0193,0.0203,0.0228,0.0257,0.0272,0.0322,0.0319,0.0343,0.0324,0.0403,0.038,0.0349,0.0348,0.0348,0.0344,0.04,0.04,0.04,0.04,0.0399,0,0.0084,0.0102,0.0128,0.0141,0.0158,0.0176,0.0192,0.0199,0.0223,0.0269,0.0274,0.0339,0.0347,0.0393,0.0374,0.0395,0.0428,0.0362,0.0365,0.0352,0.0347,0.036,0.0355,0.0403,0.0402,0.0402,0.0401,0,0.0082,0.0102,0.0126,0.0153,0.0161,0.0172,0.0197,0.0215,0.0242,0.0313,0.0333,0.0415,0.0485,0.047,0.0505,0.0462,0.0457,0.0444,0.0435,0.0433,0.0388,0.0382,0.0437,0.0436,0.0435,0.0434,0.0434,0,0.0084,0.0099,0.0127,0.0137,0.015,0.0169,0.019,0.0212,0.0254,0.038,0.044,0.0526,0.061,0.063,0.0552,0.0501,0.0482,0.0444,0.038,0.0392,0.039,0.0385,0.038,0.0408,0.0407,0.0407,0.0407,0,0.0085,0.0093,0.011,0.0136,0.016,0.0195,0.0244,0.0286,0.0363,0.046,0.0631,0.0707,0.0716,0.0682,0.0567,0.0519,0.0441,0.0429,0.047,0.0375,0.0365,0.0363,0.0359,0.0402,0.0402,0.0403,0.0403,0.0403,0.0078,0.0087,0.0114,0.0138,0.0173,0.0256,0.0316,0.0415,0.0537,0.0711,0.0759,0.0858,0.0774,0.063,0.0539,0.0414,0.0426,0.0373,0.0376,0.0379,0.0334,0.0319,0.0342,0.0342,0.0342,0.0342,0.0342,0,0.0078,0.0098,0.0119,0.0176,0.0243,0.0253,0.0379,0.0484,0.0691,0.0781,0.0913,0.0824,0.0758,0.0631,0.0442,0.0345,0.034,0.0307,0.0324,0.0329,0.0334,0.0286,0.0282,0.0282,0.0282,0.0281,0,0,0.0082,0.0107,0.0127,0.0239,0.0288,0.0417,0.0509,0.0678,0.0772,0.0907,0.0918,0.0915,0.0761,0.061,0.0484,0.038,0.0374,0.0355,0.0412,0.0452,0.0457,0.0379,0.0312,0,0,0,0,0]}],[{"header":{"parameterUnit":"m.s-1","parameterCategory":2,"la1":30.2991,"la2":30.254,"lo1":-89.0895,"lo2":-89.0444,"dy":0.0017,"dx":0.0017,"nx":28,"ny":28,"refTime":"2025-04-15T21:00:00:Z","depth":"4","parameterNumber":2,"parameterNumberName":"U-component_of_CURRENTS"},"data":[0,0,0,0,0,0,0,0,0,0,0,0,0,0,0,0,0,0,0,0,0,0,0,0,0,0,0,0,0,0,0,0,0,0,0,0,0,0,0,0,0,0,0,0,0,0,0,0,0,0,0,0,0,0,0,0,0,0,0.0473,0.0474,0,0.0497,0.0497,0.0498,0.0529,0.053,0.053,0.0531,0.0558,0.0558,0.0558,0,0,0,0,0,0,0,0,0,0,0,0,0,0.0486,0.0485,0.0473,0.0474,0.0474,0.0497,0.0497,0.0498,0.0529,0.053,0.053,0.0531,0.0557,0.0558,0.0558,0,0,0,0,0,0,0,0,0,0,0,0,0,0.0492,0.0485,0.0473,0.0492,0.0494,0.0497,0.0497,0.0498,0.0529,0.053,0.053,0.0531,0.0557,0.0558,0.0558,0.0544,0,0,0.0559,0.0559,0,0,0,0,0,0,0,0,0.0491,0.0491,0.0489,0.0491,0.0493,0.0511,0.0512,0.0513,0.0529,0.0516,0.0531,0.0532,0.0542,0.0543,0.0546,0.0546,0.0547,0.0559,0.0559,0.0559,0.056,0,0,0,0,0,0,0,0.0491,0.0491,0.0483,0.049,0.0492,0.051,0.0512,0.0512,0.0524,0.0517,0.0519,0.0522,0.0543,0.0546,0.0547,0.0547,0.0559,0.0559,0.056,0.056,0.0593,0.0594,0,0,0,0,0,0,0.0485,0.049,0.0482,0.0483,0.0494,0.0509,0.0511,0.0504,0.0524,0.0528,0.0521,0.0523,0.0545,0.0546,0.0548,0.058,0.0559,0.056,0.056,0.0592,0.0593,0.0594,0,0,0,0,0,0,0.0485,0.0484,0.0481,0.0488,0.0489,0.0508,0.0501,0.0504,0.0527,0.0527,0.0531,0.0541,0.0545,0.0547,0.0567,0.058,0.056,0.056,0.0592,0.0593,0.0593,0.0614,0,0,0,0,0,0,0.0485,0.0483,0.0491,0.0487,0.0488,0.0488,0.05,0.0504,0.0526,0.0529,0.0545,0.0548,0.0546,0.0567,0.0568,0.058,0.0561,0.0591,0.0592,0.0593,0.0613,0.0616,0.0618,0,0,0,0,0,0.0485,0.0488,0.0491,0.0491,0.0493,0.0488,0.049,0.0507,0.0526,0.0531,0.0551,0.0548,0.0576,0.0568,0.0568,0.0581,0.059,0.0592,0.0593,0.0611,0.0615,0.0618,0,0,0,0,0,0,0.0499,0.0491,0.0495,0.0496,0.0494,0.0493,0.0506,0.0516,0.0536,0.055,0.0555,0.0558,0.058,0.0578,0.0569,0.0595,0.0583,0.0585,0.0596,0.06,0.0603,0.0606,0.0561,0,0,0,0,0,0.0503,0.0502,0.0496,0.0497,0.0499,0.0507,0.0514,0.0522,0.0532,0.0543,0.0559,0.0575,0.0583,0.0591,0.0597,0.0609,0.0614,0.0619,0.0622,0.0624,0.0628,0.065,0.0656,0.0599,0.0599,0.0599,0,0,0.0508,0.0505,0.0506,0.0501,0.0505,0.0506,0.0514,0.0524,0.0533,0.0542,0.0573,0.0586,0.0589,0.0605,0.0614,0.0608,0.0643,0.0626,0.0628,0.063,0.0653,0.0658,0.0663,0.06,0.06,0.06,0,0,0.0512,0.0515,0.0517,0.0517,0.0523,0.052,0.0527,0.0537,0.0552,0.0573,0.0586,0.0607,0.0624,0.0628,0.063,0.0652,0.0658,0.066,0.0677,0.0699,0.0704,0.0709,0.0721,0.0726,0.0662,0.0662,0.0662,0,0.0524,0.0516,0.0517,0.052,0.0522,0.0528,0.0529,0.054,0.056,0.057,0.0587,0.0622,0.0631,0.064,0.0659,0.0657,0.0674,0.0662,0.0703,0.0708,0.0712,0.0723,0.0729,0.0663,0.0663,0.0663,0.0663,0,0.0521,0.0525,0.0526,0.0526,0.0531,0.053,0.0537,0.0554,0.0577,0.0587,0.0615,0.0633,0.0656,0.0662,0.0673,0.0704,0.0708,0.0704,0.0694,0.0719,0.0729,0.0734,0.0665,0.0664,0.0664,0.0664,0,0,0.052,0.0521,0.0526,0.052,0.0532,0.0525,0.0546,0.055,0.0557,0.0595,0.0614,0.0644,0.0671,0.0677,0.0692,0.0715,0.0765,0.0736,0.0736,0.0746,0.082,0.0741,0.0739,0.0779,0.078,0.0781,0.0815,0,0.0517,0.0511,0.0519,0.0516,0.0508,0.0523,0.0529,0.0542,0.0563,0.0587,0.0617,0.0642,0.067,0.0692,0.0725,0.0757,0.0782,0.0756,0.0796,0.0796,0.0722,0.0743,0.0785,0.0819,0.082,0.0821,0.0822,0,0.051,0.0504,0.0499,0.0488,0.0487,0.0491,0.0495,0.0504,0.0538,0.0563,0.0608,0.064,0.0696,0.0713,0.0785,0.0776,0.081,0.0826,0.0827,0.075,0.0727,0.0789,0.0831,0.0831,0.083,0.0829,0.0829,0,0.0487,0.0487,0.0477,0.0477,0.0472,0.0478,0.0479,0.0499,0.0505,0.0561,0.059,0.0646,0.0701,0.0746,0.0814,0.0813,0.0881,0.0873,0.0822,0.0817,0.0869,0.0864,0.0916,0.0916,0.0916,0.0916,0.0916,0,0.0464,0.0459,0.0464,0.0456,0.0425,0.0453,0.044,0.045,0.0492,0.0505,0.0587,0.0623,0.0723,0.078,0.0817,0.0841,0.0889,0.0828,0.0821,0.0876,0.0872,0.0873,0.0867,0.0917,0.0917,0.0916,0.0916,0,0.0433,0.0444,0.0411,0.0409,0.041,0.0384,0.0398,0.0388,0.0457,0.0488,0.0518,0.0631,0.0708,0.0772,0.0848,0.0843,0.0859,0.0853,0.0908,0.0904,0.0778,0.0774,0.0791,0.0788,0.0786,0.0784,0.0783,0,0.0411,0.0399,0.0364,0.0326,0.0322,0.031,0.0295,0.0351,0.0365,0.0482,0.0497,0.0606,0.0674,0.073,0.0791,0.0826,0.0823,0.0825,0.08,0.0774,0.0767,0.0765,0.0764,0.0779,0.0779,0.0778,0.0778,0,0.036,0.0349,0.0308,0.0231,0.0199,0.0181,0.0193,0.0213,0.0303,0.037,0.0477,0.0542,0.0625,0.0695,0.0734,0.0755,0.0815,0.0803,0.0807,0.0784,0.0761,0.0755,0.0756,0.0771,0.0772,0.0772,0.0773,0,0.0304,0.0249,0.0194,0.0114,0.0077,0.0077,0.0092,0.0149,0.0194,0.0358,0.0388,0.0518,0.062,0.0657,0.0685,0.0703,0.0692,0.0672,0.0683,0.0692,0.0642,0.0597,0.0553,0,0,0,0,0,0.0259,0.0187,0.0089,0.001,-0.0021,-0.0017,0.0031,0.0076,0.0194,0.0246,0.0329,0.0405,0.0494,0.0558,0.0557,0.0608,0.0668,0.06,0.0643,0.073,0.0738,0.0689,0,0,0,0,0,0,0.0214,0.0133,0.0062,-0.004,-0.0086,-0.0097,-0.0054,0.0023,0.0081,0.0208,0.0266,0.0354,0.0445,0.0488,0.0542,0.0555,0.0567,0.0669,0.0667,0.0725,0.0733,0.074,0.0691,0,0,0,0,0]},{"header":{"parameterUnit":"m.s-1","parameterCategory":2,"la1":30.2991,"la2":30.254,"lo1":-89.0895,"lo2":-89.0444,"dy":0.0017,"dx":0.0017,"nx":28,"ny":28,"refTime":"2025-04-15T21:00:00:Z","depth":"4","parameterNumber":3,"parameterNumberName":"V-component_of_CURRENTS"},"data":[0,0,0,0,0,0,0,0,0,0,0,0,0,0,0,0,0,0,0,0,0,0,0,0,0,0,0,0,0,0,0,0,0,0,0,0,0,0,0,0,0,0,0,0,0,0,0,0,0,0,0,0,0,0,0,0,0,0,0.0094,0.0094,0,0.0107,0.0107,0.0108,0.012,0.012,0.012,0.012,0.0129,0.0129,0.0129,0,0,0,0,0,0,0,0,0,0,0,0,0,0.0066,0.0067,0.0094,0.0094,0.0094,0.0107,0.0107,0.0108,0.012,0.012,0.012,0.012,0.0129,0.0129,0.0129,0,0,0,0,0,0,0,0,0,0,0,0,0,0.0079,0.0067,0.0094,0.0101,0.0102,0.0107,0.0107,0.0108,0.012,0.012,0.012,0.012,0.0129,0.0129,0.0129,0.0128,0,0,0.013,0.013,0,0,0,0,0,0,0,0,0.0078,0.008,0.01,0.0101,0.0102,0.0111,0.0101,0.0114,0.0119,0.0113,0.012,0.012,0.0122,0.0123,0.0126,0.0128,0.0128,0.013,0.013,0.013,0.013,0,0,0,0,0,0,0,0.0078,0.008,0.01,0.01,0.0101,0.01,0.0102,0.0103,0.0117,0.0114,0.0115,0.0115,0.0123,0.0126,0.0126,0.0129,0.013,0.013,0.013,0.013,0.0127,0.0127,0,0,0,0,0,0,0.0076,0.0079,0.0099,0.01,0.009,0.01,0.0102,0.0109,0.0117,0.0119,0.0115,0.0116,0.0125,0.0126,0.0126,0.0133,0.013,0.013,0.013,0.0127,0.0127,0.0127,0,0,0,0,0,0,0.0075,0.0078,0.0099,0.0089,0.0092,0.01,0.0107,0.0109,0.0112,0.0118,0.012,0.0117,0.0125,0.0126,0.013,0.0133,0.013,0.0131,0.0127,0.0127,0.0127,0.0141,0,0,0,0,0,0,0.0074,0.0077,0.008,0.0089,0.0092,0.0104,0.0107,0.0109,0.0112,0.0113,0.012,0.0121,0.0126,0.0129,0.013,0.0133,0.0131,0.0128,0.0127,0.0127,0.0141,0.0141,0.0142,0,0,0,0,0,0.0073,0.0078,0.0081,0.0083,0.0096,0.0104,0.0106,0.0112,0.0112,0.0116,0.0119,0.0121,0.0127,0.013,0.013,0.0134,0.0128,0.0127,0.0127,0.0141,0.0141,0.0142,0,0,0,0,0,0,0.0067,0.0079,0.0083,0.0091,0.0098,0.0106,0.0109,0.0111,0.0117,0.0118,0.0121,0.0123,0.0125,0.0125,0.0127,0.013,0.0126,0.0126,0.0137,0.0137,0.0137,0.0141,0.0131,0,0,0,0,0,0.0066,0.0074,0.0084,0.009,0.0093,0.01,0.0103,0.0108,0.0114,0.0117,0.012,0.0122,0.0123,0.0127,0.0127,0.0131,0.0125,0.0131,0.0132,0.0132,0.0134,0.0131,0.0132,0.0125,0.0125,0.0125,0,0,0.0065,0.0073,0.0077,0.0089,0.0095,0.0103,0.0103,0.0109,0.0116,0.0116,0.0124,0.0123,0.0123,0.0128,0.0129,0.013,0.0128,0.0131,0.0132,0.0134,0.0131,0.0132,0.0132,0.0125,0.0125,0.0125,0,0,0.0067,0.0074,0.0081,0.0088,0.0098,0.0103,0.0104,0.0113,0.0117,0.0123,0.0123,0.0124,0.0127,0.0131,0.0132,0.0133,0.0128,0.013,0.014,0.0137,0.0138,0.0139,0.0123,0.0122,0.0133,0.0133,0.0133,0,0.0064,0.0078,0.0083,0.0092,0.0101,0.0103,0.0114,0.0117,0.0126,0.0134,0.0126,0.0134,0.0129,0.0141,0.0138,0.0135,0.0128,0.0141,0.0139,0.0139,0.014,0.0124,0.0123,0.0134,0.0134,0.0134,0.0134,0,0.0072,0.0084,0.0089,0.0104,0.0112,0.0122,0.0129,0.0136,0.0138,0.0144,0.0153,0.0146,0.0155,0.0148,0.0142,0.0146,0.0137,0.0138,0.0141,0.0142,0.0124,0.0123,0.0135,0.0135,0.0135,0.0134,0,0,0.0067,0.0091,0.0093,0.0111,0.0122,0.0136,0.0144,0.0161,0.018,0.0173,0.0194,0.018,0.018,0.018,0.0174,0.0164,0.0151,0.0152,0.0151,0.0141,0.0136,0.0132,0.013,0.0155,0.0155,0.0155,0.0119,0,0.0073,0.0097,0.0107,0.0135,0.015,0.0161,0.0177,0.0192,0.0199,0.0219,0.0208,0.0221,0.0192,0.0201,0.0185,0.0163,0.015,0.016,0.0132,0.0131,0.0132,0.013,0.0155,0.0118,0.0118,0.0118,0.0117,0,0.0078,0.0098,0.0123,0.0168,0.0177,0.0194,0.0232,0.0248,0.0268,0.0275,0.028,0.0272,0.0259,0.0236,0.0192,0.0201,0.0168,0.0143,0.0142,0.0135,0.0126,0.0118,0.0115,0.0115,0.0115,0.0115,0.0116,0,0.0078,0.0114,0.0138,0.015,0.0192,0.0214,0.0241,0.0268,0.03,0.0315,0.0334,0.0315,0.0314,0.0268,0.0206,0.0203,0.0155,0.0148,0.0112,0.0111,0.0119,0.0118,0.0119,0.0119,0.0119,0.0119,0.0119,0,0.0083,0.0105,0.0145,0.0161,0.0213,0.0234,0.0293,0.0312,0.0353,0.0391,0.0369,0.0379,0.0322,0.0286,0.0223,0.0161,0.0168,0.0112,0.0105,0.0123,0.0124,0.0117,0.0117,0.0118,0.0118,0.0119,0.0119,0,0.0076,0.0095,0.0137,0.019,0.0214,0.0255,0.0341,0.0384,0.0406,0.0452,0.0459,0.0436,0.0376,0.0312,0.0237,0.0191,0.0128,0.0105,0.0123,0.0117,0.0079,0.0081,0.0063,0.0062,0.0062,0.0062,0.0062,0,0.0072,0.0088,0.016,0.0206,0.0236,0.0304,0.0359,0.0409,0.0453,0.0476,0.0495,0.0457,0.0424,0.0314,0.0239,0.0132,0.0116,0.0088,0.0084,0.0081,0.0075,0.0077,0.0078,0.0061,0.0061,0.0061,0.0061,0,0.0071,0.0095,0.0138,0.0228,0.0295,0.0374,0.0447,0.0478,0.0522,0.0543,0.0524,0.0467,0.0404,0.0309,0.0234,0.0153,0.0109,0.0085,0.0085,0.0081,0.0078,0.0074,0.0076,0.006,0.006,0.006,0.006,0,0.0077,0.0112,0.0173,0.0261,0.0346,0.0419,0.0455,0.0503,0.0542,0.0554,0.054,0.0466,0.043,0.0319,0.0243,0.0172,0.015,0.0128,0.0125,0.0125,0.0153,0.016,0.0162,0,0,0,0,0,0.0085,0.0134,0.021,0.0303,0.0386,0.0438,0.051,0.0536,0.0559,0.0551,0.055,0.0484,0.0371,0.0321,0.0248,0.0231,0.0136,0.0144,0.011,0.0054,0.0056,0.0078,0,0,0,0,0,0,0.0097,0.0156,0.0207,0.0321,0.0392,0.0477,0.0524,0.0537,0.0534,0.0538,0.0477,0.0465,0.0353,0.0408,0.0244,0.0224,0.0192,0.0098,0.0097,0.0054,0.0055,0.0056,0.0079,0,0,0,0,0]}]]